#timestamp,LO_Frequency,Hit,StdDev 
1696305615.3,286047001.2,N
1696305635.1,286047001.2,N
1696305655.9,286047000.8,N
1696305675.7,286046998.6,N
1696305695.5,286046998.3,N
1696305715.4,286046998.2,N
1696305735.2,286047000.7,N
1696305755.0,286046998.5,N
1696305756.0,286046998.5,N
1696305775.8,286046998.9,N
1696305795.6,286046999.5,N
1696305815.5,286046998.7,N
1696305835.3,286046998.5,N
1696305855.1,286047000.6,N
1696305875.9,286047000.4,N
1696305895.7,286047000.8,N
1696305915.6,286047001.1,N
1696305935.4,286047000.6,N
1696305955.2,286047000.3,N
1696305975.1,286046999.9,N
1696305976.0,286046999.9,N
1696305995.8,286047001.0,N
1696306015.6,286046998.5,N
1696306035.5,286046998.2,N
1696306055.3,286046999.1,N
1696306075.2,286046998.9,N
1696306095.0,286046999.1,N
1696306095.9,286046999.1,N
1696306115.8,286046996.5,Y
1696306135.6,286047000.8,P
1696306155.4,286046998.4,N
1696306175.3,286046998.9,N
1696306195.1,286046999.2,N
1696306215.9,286046998.7,N
1696306235.7,286046998.7,N
1696306255.5,286046999.0,N
1696306275.4,286046998.4,N
1696306295.2,286046998.8,N
1696306315.0,286046996.7,Y
1696306316.0,286046996.7,P
1696306335.8,286046999.1,N
1696306355.6,286046999.6,N
1696306375.5,286046997.1,N
1696306395.3,286046996.8,N
1696306415.1,286046996.9,N
1696306435.9,286046997.0,N
1696306455.7,286046997.1,N
1696306475.6,286046998.8,N
1696306495.4,286046998.7,N
1696306515.2,286047001.2,N
1696306535.1,286047001.0,N
1696306536.0,286047001.0,N
1696306555.8,286047000.1,N
1696306575.6,286047002.2,N
1696306595.5,286047001.9,N
1696306615.3,286047001.9,N
1696306635.2,286047002.5,N
1696306655.9,286047001.6,N
1696306675.7,286047001.8,N
1696306695.6,286047003.5,N
1696306715.4,286047003.2,N
1696306735.2,286047004.2,N
1696306755.1,286047004.0,N
1696306756.0,286047004.0,N
1696306775.8,286047003.1,N
1696306795.7,286047005.6,N
1696306815.5,286047004.8,N
1696306835.3,286047006.0,N
1696306855.2,286047005.5,N
1696306875.0,286047005.4,N
1696306875.9,286047005.4,N
1696306895.8,286047007.6,N
1696306915.6,286047004.9,N
1696306935.4,286047004.6,N
1696306955.3,286047006.7,N
1696306975.1,286047006.5,N
1696306995.8,286047006.6,N
1696307015.7,286047006.5,N
1696307035.5,286047008.8,Y
1696307055.4,286047005.8,P
1696307075.2,286047003.0,N
1696307095.0,286047006.0,P
1696307095.9,286047006.0,Y
1696307115.8,286047000.6,P
1696307135.6,286047000.8,N
1696307155.5,286047001.0,N
1696307175.3,286047000.4,N
1696307195.1,286046999.9,N
1696307215.9,286047000.3,N
1696307235.7,286047000.0,N
1696307255.5,286047002.4,N
1696307275.4,286047000.5,N
1696307295.2,286046999.9,N
1696307315.1,286047002.7,N
1696307316.0,286047002.7,N
1696307335.8,286047002.5,N
1696307355.6,286047002.6,N
1696307375.5,286047002.0,N
1696307395.3,286046999.9,N
1696307415.2,286047002.7,N
1696307435.9,286047001.4,N
1696307455.7,286047001.4,N
1696307475.6,286047001.3,N
1696307495.4,286047001.3,N
1696307515.2,286047004.4,Y
1696307535.1,286047002.2,P
1696307536.0,286047002.2,P
1696307555.8,286047001.8,P
1696307575.7,286047002.0,Y
1696307595.5,286047000.9,P
1696307615.3,286047001.0,N
1696307635.2,286047001.2,N
1696307655.0,286047001.2,N
1696307655.9,286047001.2,Y
1696307675.8,286046996.7,P
1696307695.6,286046999.0,N
1696307715.4,286046999.5,N
1696307735.3,286046999.1,N
1696307755.1,286046999.1,N
1696307775.8,286046999.1,N
1696307795.7,286046999.6,N
1696307815.5,286046999.4,N
1696307835.4,286046999.4,N
1696307855.2,286046996.5,Y
1696307875.0,286046999.0,P
1696307875.9,286046999.0,P
1696307895.8,286046999.4,P
1696307915.6,286046998.3,Y
1696307935.5,286047000.2,P
1696307955.3,286047000.0,N
1696307975.1,286047000.8,N
1696307995.9,286047000.5,N
1696308015.7,286047000.0,N
1696308035.5,286047000.3,N
1696308055.4,286046999.8,N
1696308075.2,286047000.2,N
1696308095.0,286047000.6,N
1696308096.0,286047000.6,N
1696308115.8,286047000.6,N
1696308135.6,286047000.3,N
1696308155.5,286047000.8,N
1696308175.3,286047001.0,N
1696308195.1,286047000.7,N
1696308215.9,286047001.0,N
1696308235.7,286047001.0,N
1696308255.6,286047001.0,N
1696308275.4,286047000.5,N
1696308295.2,286047000.5,N
1696308315.1,286047000.9,N
1696308316.0,286047000.9,N
1696308335.8,286047000.3,N
1696308355.7,286046999.8,N
1696308375.5,286047002.0,Y
1696308395.3,286047001.5,P
1696308415.2,286047002.2,P
1696308435.0,286047000.2,N
1696308435.9,286047000.2,N
1696308455.7,286047000.3,N
1696308475.6,286047002.7,Y
1696308495.4,286047000.9,P
1696308515.3,286046999.9,N
1696308535.1,286047000.3,N
1696308536.0,286047000.3,N
1696308555.8,286046999.9,N
1696308575.7,286047002.3,Y
1696308595.5,286047002.7,P
1696308615.4,286047002.7,N
1696308635.2,286047002.7,N
1696308655.0,286047002.7,N
1696308655.9,286047002.7,N
1696308675.8,286047002.7,Y
1696308695.6,286046998.7,P
1696308715.4,286046998.2,N
1696308735.3,286046998.7,N
1696308755.1,286046998.1,N
1696308775.9,286046999.0,N
1696308795.7,286046999.1,N
1696308815.5,286046998.7,N
1696308835.4,286046998.9,N
1696308855.2,286046999.0,N
1696308875.0,286046998.5,N
1696308875.9,286046998.5,N
1696308895.8,286046998.7,N
1696308915.6,286046999.6,N
1696308935.5,286046999.1,N
1696308955.3,286046996.6,Y
1696308975.1,286046998.7,P
1696308995.9,286046998.2,P
1696309015.7,286047001.1,P
1696309035.6,286047000.7,N
1696309055.4,286047000.6,N
1696309075.2,286047002.4,N
1696309095.1,286047002.5,N
1696309096.0,286047002.5,N
1696309115.8,286047000.1,N
1696309135.6,286046999.7,N
1696309155.5,286047000.1,N
1696309175.3,286047002.6,N
1696309195.2,286047002.6,N
